Regional Weather Roundup
Issued by NWS Kansas City/Pleasant Hill, MO

Home | Current Version | Previous Version | Text Only | Print | Product List | Glossary On
Versions: 1 2 3 4 5 6 7 8 9 10 11 12 13 14 15 16 17 18 19 20 21 22 23 24 25 26 27 28 29 30 31 32 33 34 35 36 37 38 39 40 41 42 43 44 45 46 47 48 49 50
416
ASUS43 KEAX 231310
RWREAX

WEATHER ROUNDUP FOR EASTERN KANSAS AND NORTHWEST MISSOURI
NATIONAL WEATHER SERVICE KANSAS CITY/PLEASANT HILL MO
800 AM CDT MON APR 23 2018

KSZ040-057-103>105-MOZ028-029-037-043-231400-
...KANSAS CITY METROPOLITAN AREA...

CITY           SKY/WX    TMP DP  RH WIND       PRES   REMARKS
K.C. INTL      MOSUNNY   55  34  45 N9        30.12R
K.C. DOWNTOWN  SUNNY     58  31  35 NE6       30.10S
LEES SUMMIT    CLOUDY    56  33  42 N12       30.11R
OLATHE - IXD   CLOUDY    55  36  48 N9        30.11S
OLATHE - OJC   CLOUDY    56  32  40 N10       30.10S
LAWRENCE       CLOUDY    55  35  47 NW6       30.12R

$$

MOZ001>008-011>017-020>025-030>033-038>040-044>046-053-054-231400-
...NORTHERN AND CENTRAL MISSOURI...

CITY           SKY/WX    TMP DP  RH WIND       PRES   REMARKS
ST. JOSEPH     CLOUDY    53  33  46 N9        30.15R
MOSBY          SUNNY     54  32  43 N7        30.12R
WARRENSBURG    CLOUDY    54  36  50 N7        30.08S
WHITEMAN AFB   PTSUNNY   54  36  52 N10       30.03S
CLINTON        CLOUDY    54  37  54 N10       30.06S
SEDALIA        CLOUDY    53  41  63 N10       30.07S
WARSAW         NOT AVBL
CHILLICOTHE      N/A     54  34  46 VRB6      30.13S
KIRKSVILLE     PTSUNNY   50  33  52 NE13      30.14R

$$

MOZ041-047>049-056>058-063>065-088>090-097-231400-
...EASTERN AND SOUTHERN MISSOURI...

CITY           SKY/WX    TMP DP  RH WIND       PRES   REMARKS
ST. LOUIS INTL CLOUDY    51  42  71 NE13      30.00R
SPIRIT OF STL  CLOUDY    53  40  61 NE12      29.99S
COLUMBIA       CLOUDY    54  34  46 N13       30.05R
JEFFERSON CITY LGT RAIN  55  35  47 N9        30.04R
ROLLA          CLOUDY    53  39  59 N15       29.99S
OSAGE BEACH    CLOUDY    54  42  64 N7        30.02S
SPRINGFIELD    LGT RAIN  53  50  89 N14       30.01R FOG
BRANSON        CLOUDY    52  52 100 N13       29.98R
JOPLIN         CLOUDY    53  48  83 N12       30.05R
WEST PLAINS    LGT RAIN  51  49  92 N13       29.92R FOG

$$

IAZ060-094-KSZ022-034>040-054-083-096-NEZ052-066-093-231400-
...KANSAS...SOUTHEAST NEBRASKA AND IOWA...

CITY           SKY/WX    TMP DP  RH WIND       PRES   REMARKS
TOPEKA         CLOUDY    52  36  54 NW6       30.14R
MANHATTAN      SUNNY     50  40  68 N3        30.16R
EMPORIA        CLOUDY    52  38  58 N8        30.12S
CHANUTE        CLOUDY    54  40  59 N8        30.09R
WICHITA        MOSUNNY   49  44  83 N8        30.14R
OMAHA          MOSUNNY   42  31  64 N7        30.20R
LINCOLN        SUNNY     41  33  73 N6        30.21R
FALLS CITY     PTSUNNY   43  33  68 NW6       30.16R
LAMONI         CLOUDY    50  32  50 NE10      30.16S
DES MOINES     CLOUDY    50  30  46 NE8       30.21R

$$





USA.gov is the U.S. government's official web portal to all federal, state and local government web resources and services.